Time,TemperatureF,DewpointF,PressureIn,WindDirection,WindDirectionDegrees,WindSpeedMPH,WindSpeedGustMPH,Humidity,HourlyPrecipIn,Conditions,Clouds,dailyrainin,SoftwareType,DateUTC
2013-07-21 00:01:00,71.0,-99.9,30.09,SSE,160,0.0,0.0,-999,0.00,,,0.03,,2013-07-21 07:01:00,
2013-07-21 00:11:00,71.0,-99.9,30.09,SSE,160,0.0,0.0,-999,0.00,,,0.03,,2013-07-21 07:11:00,
2013-07-21 00:22:00,71.0,-99.9,30.09,SSE,160,0.0,0.0,-999,0.00,,,0.03,,2013-07-21 07:22:00,
2013-07-21 00:32:00,71.0,-99.9,30.09,SSE,160,0.0,0.0,-999,0.00,,,0.03,,2013-07-21 07:32:00,
2013-07-21 00:43:00,70.0,-99.9,30.07,SSE,160,0.0,0.0,-999,0.00,,,0.03,,2013-07-21 07:43:00,
2013-07-21 01:02:00,70.0,-99.9,30.07,SSE,160,0.0,0.0,-999,0.00,,,0.03,,2013-07-21 08:02:00,
2013-07-21 01:11:00,70.0,-99.9,30.07,SSE,160,0.0,0.0,-999,0.00,,,0.03,,2013-07-21 08:11:00,
2013-07-21 01:22:00,70.0,-99.9,30.07,SSE,160,0.0,0.0,-999,0.00,,,0.03,,2013-07-21 08:22:00,
2013-07-21 01:33:00,70.0,-99.9,30.07,SSE,160,0.0,0.0,-999,0.00,,,0.03,,2013-07-21 08:33:00,
2013-07-21 03:43:00,69.0,-99.9,30.07,SSE,160,0.0,0.0,-999,0.00,,,0.03,,2013-07-21 10:43:00,
2013-07-21 03:52:00,69.0,-99.9,30.07,SSE,160,0.0,0.0,-999,0.00,,,0.03,,2013-07-21 10:52:00,
2013-07-21 04:02:00,69.0,-99.9,30.06,SSE,160,0.0,0.0,-999,0.00,,,0.03,,2013-07-21 11:02:00,
2013-07-21 04:12:00,69.0,-99.9,30.06,SSE,160,0.0,0.0,-999,0.00,,,0.03,,2013-07-21 11:12:00,
2013-07-21 04:22:00,69.0,-99.9,30.06,SSE,160,0.0,0.0,-999,0.00,,,0.03,,2013-07-21 11:22:00,
2013-07-21 04:33:00,69.0,-99.9,30.07,SSE,160,0.0,0.0,-999,0.00,,,0.03,,2013-07-21 11:33:00,
2013-07-21 04:43:00,69.0,-99.9,30.07,SSE,160,0.0,0.0,-999,0.00,,,0.03,,2013-07-21 11:43:00,
2013-07-21 04:52:00,69.0,-99.9,30.07,SSE,160,0.0,0.0,-999,0.00,,,0.03,,2013-07-21 11:52:00,
2013-07-21 05:01:00,69.0,-99.9,30.07,WSW,239,0.0,0.0,-999,0.00,,,0.03,,2013-07-21 12:01:00,
2013-07-21 05:11:00,69.0,-99.9,30.07,WSW,239,0.0,0.0,-999,0.00,,,0.03,,2013-07-21 12:11:00,
2013-07-21 05:22:00,69.0,-99.9,30.07,WSW,239,0.0,0.0,-999,0.00,,,0.03,,2013-07-21 12:22:00,
2013-07-21 05:32:00,69.0,-99.9,30.07,WSW,239,0.0,0.0,-999,0.00,,,0.03,,2013-07-21 12:32:00,
2013-07-21 06:02:00,68.0,-99.9,30.08,WSW,239,0.0,0.0,-999,0.00,,,0.03,,2013-07-21 13:02:00,
2013-07-21 06:12:00,68.0,-99.9,30.08,WSW,239,0.0,0.0,-999,0.00,,,0.03,,2013-07-21 13:12:00,
2013-07-21 06:22:00,68.0,-99.9,30.08,WSW,239,0.0,0.0,-999,0.00,,,0.03,,2013-07-21 13:22:00,
2013-07-21 06:43:00,69.0,-99.9,30.10,WSW,239,0.0,0.0,-999,0.00,,,0.03,,2013-07-21 13:43:00,
2013-07-21 06:53:00,69.0,-99.9,30.10,WSW,239,0.0,0.0,-999,0.00,,,0.03,,2013-07-21 13:53:00,
2013-07-21 07:02:00,70.0,-99.9,30.11,WSW,239,0.0,0.0,-999,0.00,,,0.03,,2013-07-21 14:02:00,
2013-07-21 07:12:00,70.0,-99.9,30.11,WSW,239,0.0,0.0,-999,0.00,,,0.03,,2013-07-21 14:12:00,
2013-07-21 07:23:00,70.0,-99.9,30.11,WSW,239,0.0,0.0,-999,0.00,,,0.03,,2013-07-21 14:23:00,
2013-07-21 07:32:00,70.0,-99.9,30.11,WSW,239,0.0,0.0,-999,0.00,,,0.03,,2013-07-21 14:32:00,
2013-07-21 07:43:00,73.0,-99.9,30.12,South,177,0.0,0.0,-999,0.00,,,0.03,,2013-07-21 14:43:00,
2013-07-21 08:02:00,73.0,-99.9,30.12,South,177,0.0,0.0,-999,0.00,,,0.03,,2013-07-21 15:02:00,
2013-07-21 08:11:00,73.0,-99.9,30.12,South,177,0.0,0.0,-999,0.00,,,0.03,,2013-07-21 15:11:00,
2013-07-21 08:22:00,73.0,-99.9,30.12,South,177,0.0,0.0,-999,0.00,,,0.03,,2013-07-21 15:22:00,
2013-07-21 08:32:00,73.0,-99.9,30.12,South,177,0.0,0.0,-999,0.00,,,0.03,,2013-07-21 15:32:00,
2013-07-21 09:02:00,75.0,-99.9,30.13,WSW,239,0.0,0.0,-999,0.00,,,0.03,,2013-07-21 16:02:00,
2013-07-21 09:11:00,75.0,-99.9,30.13,WSW,239,0.0,0.0,-999,0.00,,,0.03,,2013-07-21 16:11:00,
2013-07-21 09:22:00,75.0,-99.9,30.13,WSW,239,0.0,0.0,-999,0.00,,,0.03,,2013-07-21 16:22:00,
2013-07-21 09:32:00,78.0,-99.9,30.13,SW,232,1.0,3.0,-999,0.00,,,0.03,,2013-07-21 16:32:00,
2013-07-21 09:43:00,78.0,-99.9,30.13,SW,232,1.0,3.0,-999,0.00,,,0.03,,2013-07-21 16:43:00,
2013-07-21 09:52:00,78.0,-99.9,30.13,SW,232,1.0,3.0,-999,0.00,,,0.03,,2013-07-21 16:52:00,
2013-07-21 10:02:00,79.0,-99.9,30.13,SSW,209,0.0,0.0,-999,0.00,,,0.03,,2013-07-21 17:02:00,
2013-07-21 10:11:00,79.0,-99.9,30.13,SSW,209,0.0,0.0,-999,0.00,,,0.03,,2013-07-21 17:11:00,
2013-07-21 10:22:00,79.0,-99.9,30.13,SSW,209,0.0,0.0,-999,0.00,,,0.03,,2013-07-21 17:22:00,
2013-07-21 10:33:00,82.0,-99.9,30.13,SSE,161,0.0,0.0,-999,0.00,,,0.03,,2013-07-21 17:33:00,
2013-07-21 10:43:00,82.0,-99.9,30.13,SSE,161,0.0,0.0,-999,0.00,,,0.03,,2013-07-21 17:43:00,
2013-07-21 10:53:00,82.0,-99.9,30.13,SSE,161,0.0,0.0,-999,0.00,,,0.03,,2013-07-21 17:53:00,
2013-07-21 11:01:00,82.0,-99.9,30.13,SSE,161,0.0,0.0,-999,0.00,,,0.03,,2013-07-21 18:01:00,
2013-07-21 11:11:00,82.0,-99.9,30.13,SSE,161,0.0,0.0,-999,0.00,,,0.03,,2013-07-21 18:11:00,
2013-07-21 11:32:00,87.0,-99.9,30.11,South,187,0.0,5.0,-999,0.00,,,0.03,,2013-07-21 18:32:00,
2013-07-21 11:43:00,87.0,-99.9,30.11,South,187,0.0,5.0,-999,0.00,,,0.03,,2013-07-21 18:43:00,
2013-07-21 11:52:00,87.0,-99.9,30.11,South,187,0.0,5.0,-999,0.00,,,0.03,,2013-07-21 18:52:00,
2013-07-21 12:01:00,82.0,-99.9,30.11,SSW,209,0.0,0.0,-999,0.00,,,0.03,,2013-07-21 19:01:00,
2013-07-21 12:11:00,82.0,-99.9,30.11,SSW,209,0.0,0.0,-999,0.00,,,0.03,,2013-07-21 19:11:00,
2013-07-21 12:22:00,82.0,-99.9,30.11,SSW,209,0.0,0.0,-999,0.00,,,0.03,,2013-07-21 19:22:00,
2013-07-21 12:32:00,82.0,-99.9,30.10,WSW,255,0.0,0.0,-999,0.00,,,0.03,,2013-07-21 19:32:00,
2013-07-21 12:42:00,82.0,-99.9,30.10,WSW,255,0.0,0.0,-999,0.00,,,0.03,,2013-07-21 19:42:00,
2013-07-21 12:52:00,82.0,-99.9,30.10,WSW,255,0.0,0.0,-999,0.00,,,0.03,,2013-07-21 19:52:00,
2013-07-21 13:02:00,85.0,-99.9,30.09,WSW,258,0.0,0.0,-999,0.00,,,0.03,,2013-07-21 20:02:00,
2013-07-21 13:12:00,85.0,-99.9,30.09,WSW,258,0.0,0.0,-999,0.00,,,0.03,,2013-07-21 20:12:00,
2013-07-21 13:22:00,85.0,-99.9,30.09,WSW,258,0.0,0.0,-999,0.00,,,0.03,,2013-07-21 20:22:00,
2013-07-21 13:32:00,86.0,-99.9,30.08,West,262,6.0,12.0,-999,0.00,,,0.03,,2013-07-21 20:32:00,
2013-07-21 13:43:00,86.0,-99.9,30.08,West,262,6.0,12.0,-999,0.00,,,0.03,,2013-07-21 20:43:00,
2013-07-21 13:52:00,86.0,-99.9,30.08,West,262,6.0,12.0,-999,0.00,,,0.03,,2013-07-21 20:52:00,
2013-07-21 14:01:00,85.0,-99.9,30.08,SW,215,2.0,5.0,-999,0.00,,,0.03,,2013-07-21 21:01:00,
2013-07-21 14:11:00,85.0,-99.9,30.08,SW,215,2.0,5.0,-999,0.00,,,0.03,,2013-07-21 21:11:00,
2013-07-21 14:22:00,85.0,-99.9,30.08,SW,215,2.0,5.0,-999,0.00,,,0.03,,2013-07-21 21:22:00,
2013-07-21 14:32:00,86.0,-99.9,30.07,West,261,1.0,8.0,-999,0.00,,,0.00,,2013-07-21 21:32:00,
2013-07-21 14:43:00,86.0,-99.9,30.07,West,261,1.0,8.0,-999,0.00,,,0.00,,2013-07-21 21:43:00,
2013-07-21 14:52:00,86.0,-99.9,30.07,West,261,1.0,8.0,-999,0.00,,,0.00,,2013-07-21 21:52:00,
2013-07-21 15:01:00,85.0,-99.9,30.07,WSW,244,0.0,5.0,-999,0.00,,,0.00,,2013-07-21 22:01:00,
2013-07-21 15:11:00,85.0,-99.9,30.07,WSW,244,0.0,5.0,-999,0.00,,,0.00,,2013-07-21 22:11:00,
2013-07-21 15:22:00,85.0,-99.9,30.07,WSW,244,0.0,5.0,-999,0.00,,,0.00,,2013-07-21 22:22:00,
2013-07-21 15:43:00,86.0,-99.9,30.06,West,275,1.0,9.0,-999,0.00,,,0.00,,2013-07-21 22:43:00,
2013-07-21 15:52:00,86.0,-99.9,30.06,West,275,1.0,9.0,-999,0.00,,,0.00,,2013-07-21 22:52:00,
2013-07-21 16:02:00,86.0,-99.9,30.06,WSW,248,0.0,6.0,-999,0.00,,,0.00,,2013-07-21 23:02:00,
2013-07-21 16:11:00,86.0,-99.9,30.06,WSW,248,0.0,6.0,-999,0.00,,,0.00,,2013-07-21 23:11:00,
2013-07-21 16:22:00,86.0,-99.9,30.06,WSW,248,0.0,6.0,-999,0.00,,,0.00,,2013-07-21 23:22:00,
2013-07-21 16:43:00,87.0,-99.9,30.06,WNW,295,3.0,8.0,-999,0.00,,,0.00,,2013-07-21 23:43:00,
2013-07-21 16:53:00,87.0,-99.9,30.06,WNW,295,3.0,8.0,-999,0.00,,,0.00,,2013-07-21 23:53:00,
2013-07-21 17:01:00,90.0,-99.9,30.05,North,354,5.0,12.0,-999,0.00,,,0.00,,2013-07-22 00:01:00,
2013-07-21 17:11:00,90.0,-99.9,30.05,North,354,5.0,12.0,-999,0.00,,,0.00,,2013-07-22 00:11:00,
2013-07-21 17:22:00,90.0,-99.9,30.05,North,354,5.0,12.0,-999,0.00,,,0.00,,2013-07-22 00:22:00,
2013-07-21 17:32:00,82.0,-99.9,30.05,North,355,11.0,18.0,-999,0.00,,,0.00,,2013-07-22 00:32:00,
2013-07-21 17:42:00,82.0,-99.9,30.05,North,355,11.0,18.0,-999,0.00,,,0.00,,2013-07-22 00:42:00,
2013-07-21 17:53:00,82.0,-99.9,30.05,North,355,11.0,18.0,-999,0.00,,,0.00,,2013-07-22 00:53:00,
2013-07-21 18:02:00,82.0,-99.9,30.05,NW,319,6.0,10.0,-999,0.00,,,0.00,,2013-07-22 01:02:00,
2013-07-21 18:12:00,82.0,-99.9,30.05,NW,319,6.0,10.0,-999,0.00,,,0.00,,2013-07-22 01:12:00,
2013-07-21 18:22:00,82.0,-99.9,30.05,NW,319,6.0,10.0,-999,0.00,,,0.00,,2013-07-22 01:22:00,
2013-07-21 18:32:00,81.0,-99.9,30.06,North,8,7.0,13.0,-999,0.00,,,0.00,,2013-07-22 01:32:00,
2013-07-21 18:42:00,81.0,-99.9,30.06,North,8,7.0,13.0,-999,0.00,,,0.00,,2013-07-22 01:42:00,
2013-07-21 18:52:00,81.0,-99.9,30.06,North,8,7.0,13.0,-999,0.00,,,0.00,,2013-07-22 01:52:00,
2013-07-21 19:02:00,81.0,-99.9,30.06,North,8,7.0,13.0,-999,0.00,,,0.00,,2013-07-22 02:02:00,
2013-07-21 19:11:00,81.0,-99.9,30.06,North,8,7.0,13.0,-999,0.00,,,0.00,,2013-07-22 02:11:00,
2013-07-21 20:01:00,78.0,-99.9,30.10,NNW,333,5.0,8.0,-999,0.00,,,0.00,,2013-07-22 03:01:00,
2013-07-21 20:12:00,78.0,-99.9,30.10,NNW,333,5.0,8.0,-999,0.00,,,0.00,,2013-07-22 03:12:00,
2013-07-21 20:22:00,78.0,-99.9,30.10,NNW,333,5.0,8.0,-999,0.00,,,0.00,,2013-07-22 03:22:00,
2013-07-21 20:33:00,77.0,-99.9,30.11,North,352,4.0,8.0,-999,0.00,,,0.00,,2013-07-22 03:33:00,
2013-07-21 20:43:00,77.0,-99.9,30.11,North,352,4.0,8.0,-999,0.00,,,0.00,,2013-07-22 03:43:00,
2013-07-21 20:53:00,77.0,-99.9,30.11,North,352,4.0,8.0,-999,0.00,,,0.00,,2013-07-22 03:53:00,
2013-07-21 21:01:00,77.0,-99.9,30.11,NNE,32,0.0,3.0,-999,0.00,,,0.00,,2013-07-22 04:01:00,
2013-07-21 21:12:00,77.0,-99.9,30.11,NNE,32,0.0,3.0,-999,0.00,,,0.00,,2013-07-22 04:12:00,
2013-07-21 21:22:00,77.0,-99.9,30.11,NNE,32,0.0,3.0,-999,0.00,,,0.00,,2013-07-22 04:22:00,
2013-07-21 21:33:00,76.0,-99.9,30.13,NNE,22,0.0,0.0,-999,0.00,,,0.00,,2013-07-22 04:33:00,
2013-07-21 21:43:00,76.0,-99.9,30.13,NNE,22,0.0,0.0,-999,0.00,,,0.00,,2013-07-22 04:43:00,
2013-07-21 22:02:00,76.0,-99.9,30.14,North,358,0.0,0.0,-999,0.00,,,0.00,,2013-07-22 05:02:00,
2013-07-21 22:11:00,76.0,-99.9,30.14,North,358,0.0,0.0,-999,0.00,,,0.00,,2013-07-22 05:11:00,
2013-07-21 22:22:00,76.0,-99.9,30.14,North,358,0.0,0.0,-999,0.00,,,0.00,,2013-07-22 05:22:00,
2013-07-21 22:32:00,76.0,-99.9,30.14,North,358,0.0,0.0,-999,0.00,,,0.00,,2013-07-22 05:32:00,
2013-07-21 22:43:00,76.0,-99.9,30.14,North,358,0.0,0.0,-999,0.00,,,0.00,,2013-07-22 05:43:00,
2013-07-21 22:52:00,76.0,-99.9,30.14,North,358,0.0,0.0,-999,0.00,,,0.00,,2013-07-22 05:52:00,
2013-07-21 23:01:00,76.0,-99.9,30.15,North,358,0.0,0.0,-999,0.00,,,0.00,,2013-07-22 06:01:00,
2013-07-21 23:11:00,76.0,-99.9,30.15,North,358,0.0,0.0,-999,0.00,,,0.00,,2013-07-22 06:11:00,
2013-07-21 23:22:00,76.0,-99.9,30.15,North,358,0.0,0.0,-999,0.00,,,0.00,,2013-07-22 06:22:00,
2013-07-21 23:33:00,76.0,-99.9,30.15,North,358,0.0,0.0,-999,0.00,,,0.00,,2013-07-22 06:33:00,